#timestamp,LO_Frequency,Hit 
1504627215.6,286047003.0,N
1504627235.5,286047004.2,N
1504627255.3,286047006.8,N
1504627275.1,286047008.9,N
1504627295.9,286047012.4,N
1504627315.7,286047013.5,N
1504627335.5,286047010.1,N
1504627355.4,286047008.6,N
1504627375.2,286047007.6,N
1504627395.0,286047003.2,N
1504627395.9,286047003.2,N
1504627415.8,286047004.4,N
1504627435.6,286047002.0,N
1504627455.4,286047002.0,N
1504627475.3,286047003.9,N
1504627495.1,286047001.3,N
1504627496.0,286047001.3,N
1504627515.8,286047001.5,N
1504627535.7,286047005.1,N
1504627555.5,286047006.8,N
1504627575.3,286047006.9,N
1504627595.1,286047005.0,N
1504627615.9,286047003.6,N
1504627635.7,286047004.0,N
1504627655.5,286047006.0,N
1504627675.4,286047007.6,N
1504627695.2,286047004.6,N
1504627715.0,286047006.2,N
1504627715.9,286047006.2,N
1504627735.8,286047006.1,N
1504627755.6,286047008.8,N
1504627775.4,286047003.3,N
1504627795.3,286047001.5,N
1504627815.1,286047000.8,N
1504627816.0,286047000.8,N
1504627835.8,286047000.5,N
1504627855.7,286046998.1,N
1504627875.5,286047001.1,N
1504627895.3,286047004.0,N
1504627915.2,286047004.1,N
1504627935.9,286047002.3,N
1504627955.7,286046999.5,N
1504627975.5,286046999.1,N
1504627995.4,286047000.8,N
1504628015.2,286046996.7,N
1504628035.0,286046996.2,N
1504628035.9,286046996.2,N
1504628055.8,286046993.8,N
1504628075.6,286046992.5,N
1504628095.4,286046996.0,N
1504628115.3,286046995.9,N
1504628135.1,286046996.2,N
1504628155.8,286046997.1,N
1504628175.7,286046996.0,N
1504628195.5,286046995.8,N
1504628215.3,286046994.7,N
1504628235.2,286046992.2,N
1504628255.9,286046993.9,N
1504628275.7,286046996.2,N
1504628295.6,286046993.6,N
1504628315.4,286046996.1,N
1504628335.2,286046995.6,N
1504628355.1,286046990.2,P
1504628356.0,286046990.2,N
1504628375.8,286046994.1,N
1504628395.6,286046996.4,N
1504628415.5,286046995.0,N
1504628435.3,286046996.1,N
1504628455.1,286046993.7,N
1504628475.9,286046992.1,P
1504628495.7,286046999.2,N
1504628515.5,286047002.4,N
1504628535.4,286047002.2,N
1504628555.2,286047001.3,N
1504628575.0,286047003.9,N
1504628575.9,286047003.9,N
1504628595.8,286047002.1,N
1504628615.6,286047002.8,N
1504628635.4,286047000.4,N
1504628655.3,286046999.2,N
1504628675.1,286046999.0,N
1504628676.0,286046999.0,N
1504628695.8,286046999.7,N
1504628715.7,286047002.6,N
1504628735.5,286047000.0,N
1504628755.3,286047001.0,N
1504628775.1,286046998.5,N
1504628795.9,286046997.7,N
1504628815.7,286046995.6,N
1504628835.5,286046995.9,N
1504628855.4,286046993.3,N
1504628875.2,286046996.3,N
1504628895.0,286046995.3,N
1504628895.9,286046995.3,N
1504628915.8,286046997.6,N
1504628935.6,286046994.1,N
1504628955.4,286046997.6,N
1504628975.3,286046995.8,N
1504628995.1,286046996.4,N
1504628996.0,286046996.4,N
1504629015.8,286046996.2,N
1504629035.7,286046993.9,N
1504629055.5,286046993.8,N
1504629075.3,286046993.6,N
1504629095.2,286046993.4,N
1504629115.9,286046993.7,N
1504629135.7,286046993.3,N
1504629155.5,286046994.8,N
1504629175.4,286046993.3,N
1504629195.2,286046995.6,N
1504629215.0,286046998.0,N
1504629215.9,286046998.0,N
1504629235.8,286046994.2,N
1504629255.6,286046996.3,N
1504629275.4,286046995.5,N
1504629295.3,286046996.1,N
1504629315.1,286046995.5,N
1504629335.8,286046995.1,P
1504629355.7,286047002.5,P
1504629375.5,286047000.1,N
1504629395.3,286047000.8,N
1504629415.2,286046999.3,N
1504629435.9,286046996.5,N
1504629455.7,286046999.1,N
1504629475.6,286046998.3,N
1504629495.4,286046999.6,N
1504629515.2,286047000.6,N
1504629535.1,286046997.0,N
1504629536.0,286046997.0,N
1504629555.8,286047000.5,N
1504629575.6,286046999.0,N
1504629595.5,286046999.8,N
1504629615.3,286046999.9,N
1504629635.1,286047002.1,N
1504629655.8,286047002.8,N
1504629675.7,286047000.4,N
1504629695.5,286047002.0,N
1504629715.5,286047000.1,N
1504629735.3,286047002.6,N
1504629755.2,286047000.3,N
1504629775.9,286047004.1,N
1504629795.7,286047003.1,N
1504629815.6,286047002.7,N
1504629835.4,286046998.6,N
1504629855.2,286047000.3,N
1504629875.1,286046999.9,N
1504629876.0,286046999.9,N
1504629895.8,286047000.4,N
1504629915.6,286047000.9,N
1504629935.4,286046997.8,N
1504629955.3,286046997.2,N
1504629975.1,286046997.0,N
1504629995.8,286046995.6,N
1504630015.6,286046994.9,N
1504630035.4,286046997.3,N
1504630055.2,286046995.5,N
1504630075.1,286046991.8,P
1504630076.0,286046991.8,N
1504630095.8,286046994.8,N
1504630115.6,286046993.9,N
1504630135.5,286046996.0,N
1504630155.3,286046993.3,N
1504630175.1,286046991.9,P
1504630195.9,286046998.8,N
1504630215.7,286046998.3,N
1504630235.5,286047002.5,N
1504630255.4,286046998.1,N
1504630275.2,286047007.6,N
1504630295.0,286047007.6,N
1504630295.9,286047007.6,N
1504630315.8,286047005.9,N
1504630335.6,286047004.2,N
1504630355.4,286047003.5,N
1504630375.3,286046999.7,N
1504630395.1,286047002.6,N
1504630396.0,286047002.6,N
1504630415.8,286047001.2,N
1504630435.7,286046996.8,N
1504630455.5,286046996.6,N
1504630475.3,286046997.1,N
1504630495.1,286046995.7,N
1504630515.9,286046995.6,N
1504630535.7,286046995.1,N
1504630555.5,286046997.3,N
1504630575.4,286046996.7,N
1504630595.2,286046995.0,N
1504630615.0,286046992.9,N
1504630615.9,286046992.9,N
1504630635.8,286046988.9,N
1504630655.6,286046988.9,N
1504630675.4,286046989.6,N
1504630695.3,286046990.7,N
1504630715.1,286046990.7,N
1504630716.0,286046990.7,N
1504630735.8,286046990.3,N
1504630755.7,286046990.4,N
1504630775.5,286046990.3,N
1504630795.3,286046991.5,N
